Jordan, MT

11:46 PM MST on December 05, 2016 (GMT -0700)
Jordan

Weather History for KJDN - March, 2014

Change the Weather History Date:

Tuesday, March 4, 2014

  Actual Average Record
Temperature  
Mean Temperature 21 °F 28 °F  
Max Temperature 32 °F 41 °F 70 °F (1987)
Min Temperature 9 °F 16 °F -31 °F (1960)
Degree Days  
Heating Degree Days 44 37  
Month to date heating degree days 246 149  
Since 1 July heating degree days 6559 6267  
Cooling Degree Days 0 0  
Month to date cooling degree days 0 0  
Year to date cooling degree days 0 0  
Moisture  
Dew Point 11 °F    
Average Humidity 75    
Maximum Humidity 92    
Minimum Humidity 57    
Precipitation  
Precipitation 0.00 in 0.01 in 0.20 in (1908)
Month to date precipitation 0.10 0.04  
Year to date precipitation 0.71 0.52  
Snow  
Snow 0.00 in - - ()
Month to date snowfall 0.0  
Since 1 July snowfall 0.0  
Snow Depth 0.00 in    
Sea Level Pressure  
Sea Level Pressure 30.04 in    
Wind  
Wind Speed 4 mph (ENE)    
Max Wind Speed 10 mph    
Max Gust Speed 12 mph    
T = Trace of Precipitation, MM = Missing Value Source: NWS Daily Summary

Daily Weather History Graph

Daily Weather History Graph

Search for Another Location

Airport or City:

Trip Planner

Search our weather history database for the weather conditions in past years. The results will help you decide how hot, cold, wet, or windy it might be!

Date:

Astronomy

Mar. 04, 2014 Rise Set
Actual Time 6:42 AM MST 5:57 PM MST
Civil Twilight 6:11 AM MST 6:28 PM MST
Nautical Twilight 5:36 AM MST 7:03 PM MST
Astronomical Twilight 5:00 AM MST 7:39 PM MST
Moon 8:13 AM MST (3/4) 10:27 PM MST (3/4)
Length of Visible Light 12h 16m
Length of Day
11h 15m
Waxing Crescent, 15% of the Moon is Illuminated
Mar 4
Waxing Crescent
Mar 8
First Quarter
Mar 16
Full
Mar 23
Last Quarter
Mar 30
New

Hourly Weather History & Observations

Time (MST) Temp. Windchill Dew Point Humidity Pressure Visibility Wind Dir Wind Speed Gust Speed Precip Events Conditions
12:48 AM 12.0 °F 5.9 °F 7.0 °F 80% 29.99 in - East 3.5 mph - N/A   Unknown
1:48 AM 12.9 °F 2.6 °F 8.1 °F 81% 29.98 in - ENE 6.9 mph - N/A   Unknown
2:48 AM 12.9 °F 1.6 °F 8.1 °F 81% 29.97 in - East 8.1 mph - N/A   Unknown
3:48 AM 12.0 °F 1.5 °F 7.0 °F 80% 29.98 in - East 6.9 mph - N/A   Unknown
4:48 AM 12.0 °F 2.7 °F 8.1 °F 84% 29.99 in - East 5.8 mph - N/A   Unknown
5:48 AM 10.0 °F 1.8 °F 7.0 °F 87% 30.00 in - ENE 4.6 mph - N/A   Unknown
6:48 AM 10.0 °F 0.4 °F 6.1 °F 84% 30.02 in - ENE 5.8 mph - N/A   Unknown
7:48 AM 12.0 °F 2.7 °F 8.1 °F 84% 30.03 in - NE 5.8 mph - N/A   Unknown
8:48 AM 15.1 °F 7.7 °F 9.0 °F 77% 30.04 in - East 4.6 mph - N/A   Unknown
9:48 AM 16.0 °F - 10.0 °F 77% 30.04 in - Calm Calm - N/A   Unknown
10:48 AM 18.0 °F 12.7 °F 10.9 °F 74% 30.04 in - ENE 3.5 mph - N/A   Unknown
11:48 AM 23.0 °F - 12.9 °F 65% 30.05 in - Calm Calm - N/A   Unknown
12:48 PM 26.1 °F 21.9 °F 14.0 °F 60% 30.04 in - NE 3.5 mph - N/A   Unknown
1:48 PM 28.0 °F - 15.1 °F 58% 30.02 in - Calm Calm - N/A   Unknown
2:48 PM 28.0 °F - 16.0 °F 61% 30.03 in - Calm Calm - N/A   Unknown
3:48 PM 30.0 °F - 17.1 °F 59% 30.04 in - Calm Calm - N/A   Unknown
4:48 PM 30.0 °F - 17.1 °F 59% 30.06 in - Calm Calm - N/A   Unknown
5:48 PM 25.0 °F 20.7 °F 17.1 °F 72% 30.08 in - East 3.5 mph - N/A   Unknown
6:48 PM 19.9 °F 10.1 °F 14.0 °F 78% 30.10 in - ENE 8.1 mph - N/A   Unknown
7:48 PM 18.0 °F 8.7 °F 14.0 °F 84% 30.12 in - ENE 6.9 mph - N/A   Unknown
8:48 PM 15.1 °F 7.7 °F 12.0 °F 88% 30.11 in - East 4.6 mph - N/A   Unknown
9:48 PM 15.1 °F 6.4 °F 12.0 °F 88% 30.11 in - East 5.8 mph - N/A   Unknown
10:48 PM 10.9 °F - 9.0 °F 92% 30.10 in - Calm Calm - N/A   Unknown
11:48 PM 10.0 °F - 7.0 °F 87% 30.07 in - Calm Calm - N/A   Unknown